Indianapolis, IN

10:30 PM EST on November 11, 2019 (GMT -0500)
Indianapolis International

Weather History for KIND - October, 2019

Change the Weather History Date:

Monday, October 21, 2019

  Actual Average Record
Temperature  
Mean Temperature 58 °F 53 °F  
Max Temperature 66 °F 64 °F 86 °F (1953)
Min Temperature 51 °F 43 °F 23 °F (1952)
Degree Days  
Heating Degree Days 6 12  
Month to date heating degree days 154 191  
Since 1 July heating degree days 154 266  
Cooling Degree Days 0 0  
Month to date cooling degree days 37 13  
Year to date cooling degree days 1344 1062  
Growing Degree Days 8 (Base 50)    
Moisture  
Dew Point 56 °F    
Average Humidity 90    
Maximum Humidity 100    
Minimum Humidity 64    
Precipitation  
Precipitation 1.01 in 0.09 in 1.43 in (1949)
Month to date precipitation 1.62 2.14  
Year to date precipitation 38.64 34.59  
Snow  
Snow 0.00 in 0.00 in T in (1916)
Month to date snowfall 0.0 0.2  
Since 1 July snowfall 0.0 0.2  
Since 1 September snowfall 0.0 0.2  
Snow Depth 0.00 in    
Sea Level Pressure  
Sea Level Pressure 29.70 in    
Wind  
Wind Speed 12 mph ()    
Max Wind Speed 24 mph    
Max Gust Speed 33 mph    
Visibility 7.6 miles    
Events Rain , Thunderstorm    
T = Trace of Precipitation, MM = Missing Value Source: Averaged Metar Reports

Daily Weather History Graph

Daily Weather History Graph

Search for Another Location

Airport or City:

Astronomy

Oct. 21, 2019 Rise Set
Actual Time 8:01 AM EDT 6:57 PM EDT
Civil Twilight 7:34 AM EDT 7:24 PM EDT
Nautical Twilight 7:02 AM EDT 7:56 PM EDT
Astronomical Twilight 6:31 AM EDT 8:27 PM EDT
Moon 12:07 AM EDT (10/21) 3:18 PM EDT (10/21)
Length of Visible Light 11h 50m
Length of Day
10h 56m
Waning Gibbous, 48% of the Moon is Illuminated
Oct 21
Waning Gibbous
Oct 27
New
Nov 4
First Quarter
Nov 12
Full
Nov 19
Last Quarter

Hourly Weather History & Observations

Time (EDT) Temp. Dew Point Humidity Pressure Visibility Wind Dir Wind Speed Gust Speed Precip Events Conditions
12:54 AM 57.0 °F 51.1 °F 81% 29.88 in 10.0 mi ESE 5.8 mph - N/A   Partly Cloudy
1:54 AM 55.9 °F 51.1 °F 84% 29.86 in 10.0 mi SE 10.4 mph - N/A   Partly Cloudy
2:54 AM 54.0 °F 51.1 °F 90% 29.83 in 10.0 mi ESE 8.1 mph - N/A   Clear
3:54 AM 54.0 °F 51.1 °F 90% 29.83 in 10.0 mi ESE 9.2 mph - N/A   Partly Cloudy
4:54 AM 55.0 °F 52.0 °F 89% 29.81 in 10.0 mi SE 9.2 mph - N/A   Partly Cloudy
5:54 AM 57.0 °F 54.0 °F 89% 29.79 in 10.0 mi SE 13.8 mph - N/A   Overcast
6:54 AM 57.0 °F 54.0 °F 89% 29.76 in 10.0 mi SE 13.8 mph - N/A   Mostly Cloudy
7:54 AM 57.0 °F 54.0 °F 89% 29.73 in 10.0 mi ESE 16.1 mph - N/A   Mostly Cloudy
8:43 AM 57.0 °F 55.0 °F 93% 29.75 in 10.0 mi SE 13.8 mph - 0.00 in Rain , Thunderstorm Light Thunderstorms and Rain
8:54 AM 57.0 °F 55.0 °F 93% 29.71 in 6.0 mi ESE 12.7 mph 23.0 mph 0.02 in Rain , Thunderstorm Light Thunderstorms and Rain
9:36 AM 57.0 °F 55.9 °F 96% 29.74 in 1.5 mi SE 12.7 mph - 0.10 in Rain Heavy Rain
9:47 AM 57.0 °F 55.9 °F 96% 29.74 in 2.0 mi SE 15.0 mph 26.5 mph 0.19 in Rain , Thunderstorm Heavy Thunderstorms and Rain
9:54 AM 57.0 °F 55.9 °F 96% 29.73 in 2.0 mi SE 17.3 mph 26.5 mph 0.22 in Rain , Thunderstorm Heavy Thunderstorms and Rain
10:14 AM 57.9 °F 57.0 °F 97% 29.71 in 2.5 mi SE 19.6 mph - 0.13 in Rain Heavy Rain
10:26 AM 57.9 °F 57.9 °F 100% 29.71 in 4.0 mi SE 16.1 mph 24.2 mph 0.19 in Rain Rain
10:54 AM 59.0 °F 57.0 °F 93% 29.69 in 9.0 mi SE 15.0 mph 27.6 mph 0.20 in Rain Light Rain
11:22 AM 59.0 °F 57.9 °F 96% 29.70 in 6.0 mi SE 17.3 mph - 0.00 in Rain Light Rain
11:54 AM 59.0 °F 57.9 °F 96% 29.67 in 10.0 mi SE 18.4 mph 25.3 mph 0.03 in Rain Light Rain
12:32 PM 60.1 °F 57.9 °F 93% 29.67 in 2.0 mi SSE 15.0 mph 28.8 mph 0.02 in Rain Light Rain
12:42 PM 60.1 °F 59.0 °F 96% 29.67 in 5.0 mi SSE 12.7 mph - 0.03 in Rain Light Rain
12:50 PM 60.8 °F 59.0 °F 94% 29.68 in 2.5 mi SSW 10.4 mph - 0.04 in Rain Rain
12:54 PM 60.1 °F 59.0 °F 96% 29.68 in 2.5 mi SSW 8.1 mph - 0.06 in Rain Heavy Rain
1:12 PM 60.1 °F 59.0 °F 96% 29.63 in 3.0 mi SE 11.5 mph - 0.07 in Rain Light Rain
1:27 PM 60.1 °F 59.0 °F 96% 29.62 in 6.0 mi SE 13.8 mph - 0.07 in Rain Light Rain
1:54 PM 62.1 °F 61.0 °F 96% 29.62 in 10.0 mi SSE 19.6 mph 28.8 mph 0.07 in   Overcast
2:01 PM 63.0 °F 61.0 °F 93% 29.63 in 10.0 mi SSE 17.3 mph 27.6 mph N/A   Overcast
2:52 PM 64.4 °F 62.6 °F 94% 29.62 in 10.0 mi South 20.7 mph 28.8 mph 0.00 in   Overcast
2:54 PM 64.0 °F 61.0 °F 90% 29.61 in 10.0 mi South 20.7 mph 28.8 mph 0.00 in   Overcast
3:13 PM 64.9 °F 61.0 °F 87% 29.62 in 10.0 mi South 13.8 mph - N/A   Overcast
3:54 PM 66.0 °F 62.1 °F 87% 29.61 in 10.0 mi South 15.0 mph - N/A   Overcast
4:54 PM 66.0 °F 61.0 °F 84% 29.58 in 4.0 mi South 16.1 mph - 0.01 in Rain Rain
5:54 PM 64.0 °F 62.1 °F 93% 29.61 in 10.0 mi SSW 18.4 mph 26.5 mph 0.40 in Rain Light Rain
6:54 PM 63.0 °F 61.0 °F 93% 29.63 in 9.0 mi South 13.8 mph - 0.00 in Rain Light Rain
7:54 PM 63.0 °F 57.9 °F 84% 29.65 in 10.0 mi South 13.8 mph - 0.00 in   Overcast
8:54 PM 62.1 °F 55.9 °F 80% 29.67 in 10.0 mi SSW 19.6 mph 29.9 mph N/A   Mostly Cloudy
9:54 PM 61.0 °F 54.0 °F 78% 29.68 in 10.0 mi SSW 17.3 mph 28.8 mph N/A   Scattered Clouds
10:54 PM 60.1 °F 55.0 °F 83% 29.70 in 10.0 mi SSW 17.3 mph - N/A   Scattered Clouds
11:38 PM 57.0 °F 45.0 °F 64% 29.74 in 10.0 mi West 15.0 mph - N/A   Mostly Cloudy
11:54 PM 55.9 °F 45.0 °F 67% 29.75 in 10.0 mi West 16.1 mph 31.1 mph N/A   Mostly Cloudy